Regional Weather Roundup
Issued by NWS Newport/Morehead, NC

Current Version | Previous Version | Graphics & Text | Print | Product List | Glossary On
Versions: 1 2 3 4 5 6 7 8 9 10 11 12 13 14 15 16 17 18 19 20 21 22 23 24 25 26 27 28 29 30 31 32 33 34 35 36 37 38 39 40 41 42 43 44 45 46 47 48 49 50
000 ASUS42 KMHX 180710 RWRMHX WEATHER ROUNDUP FOR EASTERN NORTH CAROLINA NATIONAL WEATHER SERVICE NEWPORT/MOREHEAD CITY NC 300 AM EDT THU SEP 18 2014 NOTE: "FAIR" INDICATES FEW OR NO CLOUDS BELOW 12,000 FEET WITH NO SIGNIFICANT WEATHER AND/OR OBSTRUCTIONS TO VISIBILITY NCZ015>017-031-032-045>047-102-103-180800- NORTH COAST CITY SKY/WX TMP DP RH WIND PRES REMARKS EDENTON MOCLDY 63 61 94 N3 29.94S ELIZABETH CITY MOCLDY 66 60 81 NE5 29.93F KITTY HAWK MOSUNNY 70 59 66 NE3 29.92R MANTEO MOCLDY 70 60 68 NE9 29.93S $$ NCZ045>047-081-094-103-104-180800- CENTRAL COAST CITY SKY/WX TMP DP RH WIND PRES REMARKS FRISCO CLEAR 69 62 78 NE9G17 29.90F SWANQUARTER N/A 66 N/A N/A NE3 29.88S $$ NCZ095-097-098-100-101-180800- SOUTHERN COAST CITY SKY/WX TMP DP RH WIND PRES REMARKS BEAUFORT CLOUDY 70 66 87 NE5 29.91S CEDAR ISLAND N/A 73 N/A N/A NE12G21 29.94S JACKSONVILLE PTCLDY 67 63 87 NE6 29.90F NEWPORT NOT AVBL PINEY ISLAND SUNNY 75 64 68 NE14 29.90F WILMINGTON PTCLDY 67 65 93 NE6 29.89F $$ NCZ011>013-027>030-043-044-078>080-089-090>093-098-180800- COASTAL PLAIN CITY SKY/WX TMP DP RH WIND PRES REMARKS AHOSKIE PTCLDY 59 58 97 CALM 29.95S CLINTON MOCLDY 67 65 95 CALM 29.93R ELIZABETHTOWN MOCLDY 66 66 98 CALM 29.92R GOLDSBORO MOCLDY 65 64 97 CALM 29.91F GREENVILLE CLEAR 63 63 100 CALM 29.95F HAVELOCK CLOUDY 69 64 84 NE8 29.92F KENANSVILLE MOCLDY 64 63 94 CALM 29.93S KINSTON PTCLDY 64 63 96 N3 29.94S NEW BERN PTCLDY 67 63 87 NE6 29.92F RICHLANDS PTCLDY 64 61 88 N3 29.91F ROANOKE RAPIDS NOT AVBL ROCKY MOUNT PTCLDY 63 60 90 CALM 29.94F WASHINGTON CLEAR 62 60 96 CALM 29.93F WHITEVILLE MOCLDY 69 66 91 CALM 29.90F $$ AMZ130-135-150-152-154-156-158-170-250-252-270-ANZ085-086-088-633-658-670-180800- MARINE OBSERVATIONS STATION/POSITION TIME TEMP WIND PRES WAVE SWELL AIR SEA DIR/SP/G HT/PER HT/PER (UTC) (F) (DEG/KT/KT) (MB) (FT/S) (FT/S) CHESAPEAKE LIGHT 0600 70 60/ 10/ 11 1014.7 BUOY 44014 0700 72 77 30/ 12/ 17 1012.6 5/13 5/13 DUCK 0700 72 76 50/ 11/ 14 1012.7 2E DUCK 0700 N/A 5/13 3/13 OREGON INLET 0700 72 75 40/ 9/ 14 1012.9 BUOY 44095 0700 76 N/A 5/13 3/13 20E OREGON INLET NOT AVBL HATTERAS CG 0700 72 77 40/ 11/ 15 1012.8 DIAMOND BUOY 0700 73 30/ 14/ 16 1011.9 6/14 5/14 CAPE LOOKOUT 0600 75 40/ 15/ 17 1012.3 BEAUFORT LAB 0700 71 79 20/ 5/ 8 1012.2 30 SE NEW RIVER 0700 78 82 40/ 14/ 16 1011.9 4/14 3/14 5 SE WRIGHTSVILL 0600 73 81 50/ 16/ 17 N/A BUOY 41002 0645 78 82 350/ 8/ 10 1011.1 5/13 5/13 BUOY 41004 0700 80 83 340/ 6/ 6 1011.7 4/13 3/13 $$

USA.gov is the U.S. government's official web portal to all federal, state and local government web resources and services.